Great Salt Lake Weather Center

Moon Phase Calendar



Great Salt Lake Water Level
Online Cameras

 


      

Current Conditions in Little Mountain
1/18/2021 1:37:48 PM

39°F
Feels Like 30
Clouds
Humidity
57%
Pressure
30.09"
Wind
8 mph (NNE)
Dew Point
26°F
UV Index
1/10 (Low)
Visibility
6 mi

Hourly Forecast

Date & Time Mon, Jan 18
1:00 PM
Mon, Jan 18
2:00 PM
Mon, Jan 18
3:00 PM
Mon, Jan 18
4:00 PM
Mon, Jan 18
5:00 PM
Mon, Jan 18
6:00 PM
Mon, Jan 18
7:00 PM
Mon, Jan 18
8:00 PM
Mon, Jan 18
9:00 PM
Mon, Jan 18
10:00 PM
Mon, Jan 18
11:00 PM
Tue, Jan 19
12:00 AM
Tue, Jan 19
1:00 AM
Tue, Jan 19
2:00 AM
Tue, Jan 19
3:00 AM
Tue, Jan 19
4:00 AM
Tue, Jan 19
5:00 AM
Tue, Jan 19
6:00 AM
Tue, Jan 19
7:00 AM
Tue, Jan 19
8:00 AM
Tue, Jan 19
9:00 AM
Tue, Jan 19
10:00 AM
Tue, Jan 19
11:00 AM
Tue, Jan 19
12:00 PM
Tue, Jan 19
1:00 PM
Tue, Jan 19
2:00 PM
Tue, Jan 19
3:00 PM
Tue, Jan 19
4:00 PM
Tue, Jan 19
5:00 PM
Tue, Jan 19
6:00 PM
Tue, Jan 19
7:00 PM
Tue, Jan 19
8:00 PM
Tue, Jan 19
9:00 PM
Tue, Jan 19
10:00 PM
Tue, Jan 19
11:00 PM
Wed, Jan 20
12:00 AM
Wed, Jan 20
1:00 AM
Wed, Jan 20
2:00 AM
Wed, Jan 20
3:00 AM
Wed, Jan 20
4:00 AM
Wed, Jan 20
5:00 AM
Wed, Jan 20
6:00 AM
Wed, Jan 20
7:00 AM
Wed, Jan 20
8:00 AM
Wed, Jan 20
9:00 AM
Wed, Jan 20
10:00 AM
Wed, Jan 20
11:00 AM
Wed, Jan 20
12:00 PM
Condition
Clouds

Clouds

Clouds

Clouds

Clouds

Clouds

Clouds

Clouds

Clouds

Clouds

Clouds

Clear

Clear

Clear

Clear

Clear

Clear

Clear

Clear

Clear

Clear

Clear

Clear

Clear

Clear

Clear

Clear

Clear

Clear

Clear

Clear

Clear

Clear

Clear

Clear

Clear

Clear

Clear

Clear

Clear

Clear

Clear

Clear

Clear

Clear

Clear

Clouds

Clouds
Temperature 39°F37°F36°F35°F35°F33°F32°F31°F31°F30°F30°F29°F28°F28°F27°F26°F27°F27°F27°F27°F27°F28°F29°F30°F31°F32°F32°F33°F32°F32°F31°F31°F31°F30°F30°F30°F30°F30°F29°F29°F29°F29°F29°F29°F30°F31°F32°F33°F
Feels Like 28°F26°F25°F24°F22°F20°F18°F17°F17°F17°F16°F15°F14°F13°F13°F13°F13°F12°F12°F13°F12°F14°F16°F18°F20°F21°F22°F23°F23°F23°F24°F23°F23°F24°F24°F24°F23°F22°F22°F22°F22°F23°F23°F22°F24°F25°F26°F27°F
Cloudiness 55%55%57%62%67%69%55%37%28%22%18%0%0%0%0%0%0%0%0%0%0%0%0%0%0%0%0%0%0%0%0%0%0%0%0%0%0%0%0%0%0%0%0%0%0%0%11%62%
Visibility 6 mi6 mi6 mi6 mi6 mi6 mi6 mi6 mi6 mi6 mi6 mi6 mi6 mi6 mi6 mi6 mi6 mi6 mi6 mi6 mi6 mi6 mi6 mi6 mi6 mi6 mi6 mi6 mi6 mi6 mi6 mi6 mi6 mi6 mi6 mi6 mi6 mi6 mi6 mi6 mi6 mi6 mi6 mi6 mi6 mi6 mi6 mi6 mi
Precipitation 10%6%14%20%12%6%8%2%2%2%0%0%0%0%0%0%0%0%0%0%0%0%0%0%0%0%0%0%0%0%0%0%0%0%0%0%0%0%0%0%0%0%0%0%0%0%0%0%
Humidity 57%70%78%82%86%90%92%92%92%92%92%91%91%90%90%90%89%89%89%89%89%89%89%88%88%87%86%85%86%87%86%86%87%87%87%88%88%88%89%89%89%89%89%89%89%88%88%86%
Dew Point 26°F29°F30°F31°F31°F26°F25°F24°F23°F23°F22°F21°F20°F19°F18°F17°F17°F17°F17°F17°F17°F18°F18°F19°F19°F19°F19°F19°F19°F19°F18°F18°F18°F18°F18°F19°F19°F19°F19°F19°F19°F19°F19°F19°F20°F19°F20°F20°F
Pressure 30.09"30.18"30.24"30.27"30.3"30.33"30.33"30.36"30.39"30.39"30.42"30.42"30.45"30.45"30.45"30.47"30.47"30.5"30.53"30.56"30.56"30.56"30.56"30.53"30.5"30.47"30.47"30.47"30.47"30.5"30.5"30.53"30.53"30.5"30.5"30.5"30.5"30.5"30.5"30.47"30.47"30.45"30.45"30.45"30.45"30.42"30.36"30.33"
Wind Speed 11.9 mph13.3 mph13.2 mph14.3 mph15.6 mph16.8 mph17.9 mph17.9 mph17 mph16 mph16.4 mph16.4 mph17.6 mph18.3 mph17.3 mph16.4 mph16.3 mph18.8 mph17.8 mph17.1 mph17.9 mph16.6 mph15 mph14.3 mph12.2 mph10.9 mph10.8 mph10.2 mph9.8 mph8.8 mph6.6 mph6.4 mph5.6 mph4 mph2.8 mph3.3 mph3.8 mph5.2 mph5.1 mph4.3 mph4 mph3.7 mph3.9 mph4.5 mph3.4 mph3 mph3.6 mph2.9 mph
Wind
Direction
346°
NNW
349°
N
356°
N

N
11°
N

N

N
12°
NNE
19°
NNE
23°
NNE
23°
NNE
26°
NNE
24°
NNE
24°
NNE
30°
NNE
30°
NNE
28°
NNE
29°
NNE
34°
NE
35°
NE
29°
NNE
31°
NNE
27°
NNE
29°
NNE
30°
NNE
25°
NNE
16°
NNE
12°
NNE

N
10°
N
15°
NNE
20°
NNE
33°
NNE
43°
NE
76°
ENE
86°
E
63°
ENE
43°
NE
68°
ENE
93°
E
107°
ESE
101°
E
102°
ESE
104°
ESE
106°
ESE
74°
ENE
94°
E
87°
E

Daily Forecast

Date High Low Precip. Humidity
Today
Jan 18

Clouds
39 °F
30 °F
20%
83%
Tuesday
Jan 19

Clear
33 °F
26 °F
0%
88%
Wednesday
Jan 20

Clouds
34 °F
29 °F
0%
88%
Thursday
Jan 21

Clouds
37 °F
33 °F
0%
81%
Friday
Jan 22

Rain
40 °F
35 °F
95%
78%
Saturday
Jan 23

Snow
39 °F
29 °F
100%
95%
Sunday
Jan 24

Snow
30 °F
24 °F
28%
91%
Monday
Jan 25

Snow
36 °F
27 °F
100%
80%
Tuesday
Jan 26

Snow
32 °F
26 °F
30%
85%
Wednesday
Jan 27

Snow
33 °F
29 °F
81%
92%
Thursday
Jan 28

Snow
38 °F
30 °F
60%
91%
Friday
Jan 29

Snow
39 °F
37 °F
85%
77%
Saturday
Jan 30

Clear
42 °F
37 °F
0%
74%
Sunday
Jan 31

Snow
45 °F
32 °F
98%
71%
Monday
Feb 1

Snow
34 °F
29 °F
96%
86%
Tuesday
Feb 2

Clouds
31 °F
26 °F
0%
86%


Temperature 8-14 Day Outlook



Precipitation 8-14 Day Outlook




Quick Links
Great Salt Lake News
Great Salt Lake Photos
Great Salt Lake Videos




About Us
Contact Us
Site Map
Search Site
Advertise With Us
   
GreatSalt.USLakes.info
THE GREAT SALT LAKE WEBSITE

Copyright 2021, Lakes Online
Privacy    |    Legal